Location: Gensac
(43.2177°N, 1.1313°E)
Time: 09:26:28
(UTC+00:00)

IGS 5A - Pass Details

Date: 19 March 2026
Orbit: 551 x 554 km, 97.4° (Epoch: 8 January)

Event Time Altitude Azimuth Distance (km) Brightness Sun altitude
Rises 05:13:23 0° 19° (NNE) 2,735 7.3 -9.4°
Reaches altitude 10° 05:15:36 10° 26° (NNE) 1,836 6.5 -9.0°
Maximum altitude 05:19:23 42° 98° (E) 796 4.8 -8.4°
Drops below altitude 10° 05:23:08 10° 170° (S) 1,821 6.0 -7.7°
Sets 05:25:20 0° 178° (S) 2,710 6.8 -7.3°
